EST,Max TemperatureF,Mean TemperatureF,Min TemperatureF,Max Dew PointF,MeanDew PointF,Min DewpointF,Max Humidity, Mean Humidity, Min Humidity, Max Sea Level PressureIn, Mean Sea Level PressureIn, Min Sea Level PressureIn, Max VisibilityMiles, Mean VisibilityMiles, Min VisibilityMiles, Max Wind SpeedMPH, Mean Wind SpeedMPH, Max Gust SpeedMPH,PrecipitationIn, CloudCover, Events, WindDirDegrees
2013-2-1,30,25,20,14,8,2,62,47,31,30.27,30.00,29.81,10,10,10,25,13,38,T,4,,275
2013-2-2,24,18,12,20,13,3,92,71,49,30.31,30.15,30.03,10,5,1,17,7,22,0.11,6,Snow,234
2013-2-3,28,21,14,22,17,12,92,80,68,30.03,29.91,29.82,10,5,0,18,4,24,0.01,7,Fog-Snow,290
2013-2-4,30,25,19,18,11,9,74,58,42,30.02,29.96,29.88,10,10,10,21,9,25,0.00,3,,263
2013-2-5,32,29,25,28,24,18,92,80,68,29.97,29.91,29.87,10,5,2,8,4,9,0.01,8,Rain-Snow,70
2013-2-6,39,30,21,28,21,12,100,74,47,30.36,30.10,29.91,10,7,0,17,6,23,0.00,5,Fog,275
2013-2-7,34,26,18,19,14,11,73,57,41,30.50,30.41,30.30,10,10,10,13,5,16,0.00,4,,79
2013-2-8,34,32,30,32,29,19,96,80,63,30.27,29.92,29.74,10,5,1,17,10,24,0.31,8,Snow,36
2013-2-9,33,26,19,32,17,8,96,70,43,30.40,30.07,29.78,10,8,1,28,14,38,0.08,5,Snow,312
2013-2-10,38,22,6,16,11,6,84,58,32,30.50,30.41,30.30,10,10,10,13,3,15,0.00,0,,104
2013-2-11,42,37,32,37,32,18,100,74,47,30.27,29.92,29.68,10,3,0,16,4,26,0.32,6,Fog-Rain,133
2013-2-12,43,35,27,27,24,21,69,59,49,29.99,29.90,29.77,10,10,10,24,12,36,0.00,5,,279
2013-2-13,43,33,22,33,27,20,100,77,53,29.97,29.81,29.70,10,7,1,8,2,12,0.07,4,Snow,39
2013-2-14,43,35,27,32,28,24,96,73,49,30.00,29.90,29.72,10,7,2,13,5,15,T,3,,252
2013-2-15,52,39,25,34,28,22,92,67,41,30.02,29.98,29.94,10,7,2,24,6,29,0.17,4,Rain-Snow,277
2013-2-16,36,32,28,34,25,10,96,73,50,29.99,29.93,29.81,10,8,2,18,6,23,0.03,7,Snow,344
2013-2-17,32,26,19,10,5,0,50,41,32,30.07,29.86,29.78,10,10,9,23,16,41,T,3,,317
2013-2-18,35,26,16,13,6,1,55,44,32,30.32,30.23,30.12,10,10,10,22,9,33,0.00,0,,274
2013-2-19,41,31,21,37,28,13,100,75,50,30.17,29.88,29.70,10,6,2,23,6,32,0.26,5,Rain-Snow,224
2013-2-20,34,29,24,19,12,8,59,51,42,30.04,29.92,29.79,10,10,10,23,15,35,0.00,5,,284
2013-2-21,36,28,20,15,12,10,65,53,40,30.33,30.14,30.04,10,10,10,28,13,35,0.00,5,,305
2013-2-22,37,28,18,28,19,12,84,66,48,30.40,30.33,30.25,10,10,10,10,5,15,0.00,4,,113
2013-2-23,43,38,33,40,36,28,100,88,75,30.25,30.02,29.82,10,4,1,13,6,14,0.12,8,Rain,60
2013-2-24,44,38,31,36,29,19,92,74,56,30.03,29.86,29.79,10,9,4,18,8,26,T,6,,305
2013-2-25,44,35,26,27,23,20,75,62,49,30.25,30.15,30.05,10,10,2,14,5,20,0.00,5,,316
2013-2-26,44,34,23,33,28,21,92,73,53,30.27,30.12,29.82,10,9,4,26,10,35,0.31,5,Rain,89
2013-2-27,48,42,35,43,38,33,100,83,65,29.79,29.60,29.53,10,7,2,25,11,32,0.27,8,Rain,334
2013-2-28,45,38,31,35,31,26,92,71,49,29.67,29.62,29.58,10,10,10,15,6,20,T,7,Rain,260